Weatherford, Texas, United States (76085)
Lat: 32.76N, Lon: 97.8W
Wx Zone: TXZ117
Local Info
Past Weather Observations for Yesterday

NOTE: This archive is for the closest National Weather Service station to Weatherford. Information may differ from the station used for current weather conditions.

Click here for Long-term Archive

Time Weather Temperature Dewpoint Humidity Pressure Winds Precip Visibility
23:53
Overcast
66°F / 19°C 59°F / 15°C 78% 30.09 in
(1019 mb)
SE 6.9 mph
(SE 11 kph)
- 7SM
22:53
Mostly Cloudy
66°F / 19°C 59°F / 15°C 78% 30.09 in
(1019 mb)
SE 5.8 mph
(SE 9 kph)
- 8SM
21:53
Mostly Cloudy
68°F / 20°C 61°F / 16°C 78% 30.09 in
(1019 mb)
SSE 4.6 mph
(SSE 7 kph)
0.00 in
(0.00 mm)
8SM
20:53
Mostly Cloudy
70°F / 21°C 61°F / 16°C 73% 30.09 in
(1019 mb)
SE 5.8 mph
(SE 9 kph)
0.00 in
(0.00 mm)
7SM
19:53
Mostly Cloudy
Light Rain
72°F / 22°C 59°F / 15°C 65% 30.09 in
(1019 mb)
SE 4.6 mph
(SE 7 kph)
0.00 in
(0.00 mm)
7SM
18:53
Clear
72°F / 22°C 57°F / 14°C 61% 30.09 in
(1019 mb)
ESE 4.6 mph
(ESE 7 kph)
- 8SM
17:53
Partly Cloudy
73°F / 23°C 55°F / 13°C 53% 30.09 in
(1019 mb)
Calm - 10SM
16:53
Clear
77°F / 25°C 57°F / 14°C 51% 30.06 in
(1018 mb)
SSE 6.9 mph
(SSE 11 kph)
- 9SM
15:53
Clear
77°F / 25°C 57°F / 14°C 51% 30.06 in
(1018 mb)
S 5.8 mph
(S 9 kph)
- 10SM
14:53
Partly Cloudy
79°F / 26°C 57°F / 14°C 48% 30.06 in
(1018 mb)
S 8.1 mph
(S 13 kph)
- 10SM
13:53
Partly Cloudy
75°F / 24°C 59°F / 15°C 57% 30.09 in
(1019 mb)
SE 10.4 mph
(SE 17 kph)
- 8SM
12:53
Partly Cloudy
75°F / 24°C 61°F / 16°C 61% 30.09 in
(1019 mb)
SE 11.5 mph
(SE 19 kph)
- 8SM
11:53
Partly Cloudy
75°F / 24°C 61°F / 16°C 61% 30.12 in
(1020 mb)
SE 10.4 mph
(SE 17 kph)
- 9SM
10:53
Clear
73°F / 23°C 61°F / 16°C 65% 30.15 in
(1021 mb)
SSE 11.5 mph
(SSE 19 kph)
- 9SM
09:53
Clear
70°F / 21°C 61°F / 16°C 73% 30.15 in
(1021 mb)
SE 6.9 mph
(SE 11 kph)
- 7SM
08:53
Clear
Hazy
63°F / 17°C 57°F / 14°C 83% 30.15 in
(1021 mb)
SE 6.9 mph
(SE 11 kph)
- 4SM
08:02
Clear
Hazy
63°F / 17°C 57°F / 14°C 83% 30.12 in
(1020 mb)
E 5.8 mph
(E 9 kph)
- 4SM
07:53
Clear
Fog And Mist
63°F / 17°C 57°F / 14°C 83% 30.12 in
(1020 mb)
E 3.5 mph
(E 6 kph)
- 2 1/2SM
07:39
Clear
Fog And Mist
61°F / 16°C 57°F / 14°C 88% 30.12 in
(1020 mb)
Calm - 2SM
06:49
Clear
Fog And Mist
54°F / 12°C 52°F / 11°C 94% 30.12 in
(1020 mb)
Calm - 1 3/4SM
06:48
Clear
Fog And Mist
54°F / 12°C 52°F / 11°C 94% 30.12 in
(1020 mb)
Calm - 1 3/4SM
05:53
Clear
Fog And Mist
55°F / 13°C 54°F / 12°C 94% 30.09 in
(1019 mb)
WNW 3.5 mph
(WNW 6 kph)
- 4SM
04:53
Clear
Fog And Mist
57°F / 14°C 54°F / 12°C 88% 30.09 in
(1019 mb)
SE 5.8 mph
(SE 9 kph)
- 5SM
03:53
Clear
Fog And Mist
57°F / 14°C 54°F / 12°C 88% 30.06 in
(1018 mb)
E 3.5 mph
(E 6 kph)
- 6SM
02:53
Clear
57°F / 14°C 54°F / 12°C 88% 30.06 in
(1018 mb)
ESE 5.8 mph
(ESE 9 kph)
- 7SM
01:53
Clear
59°F / 15°C 54°F / 12°C 82% 30.06 in
(1018 mb)
Calm - 7SM
00:53
Clear
61°F / 16°C 55°F / 13°C 83% 30.06 in
(1018 mb)
SE 6.9 mph
(SE 11 kph)
- 8SM
Time Weather Temperature Dewpoint Humidity Pressure Winds Precip Visibility


Weather for websites

WeatherForYou.com, LLC is not responsible for any damages or problems caused by this service. Current weather conditions are obtained from the closest station including government and personal stations which may have varying degrees of accuracy. Weather forecasts are derived from the NOAA NDFD. Like all things, this site belongs to Jesus Christ... He just trusts me to maintain it. If you have any questions or comments email webmaster@weatherforyou.com

Copyright © 2014, WeatherForYou.com LLC. All rights reserved.